Change the Weather History Date:

Wednesday, April 30, 2014

  Actual Average Record
Temperature  
Mean Temperature 43 °F -  
Max Temperature 46 °F 64 °F 89 °F (1952)
Min Temperature 40 °F 39 °F 16 °F (1956)
Degree Days  
Heating Degree Days 22    
Moisture  
Dew Point 40 °F    
Average Humidity 88    
Maximum Humidity 97    
Minimum Humidity 74    
Precipitation  
Precipitation 0.01 in - - ()
Sea Level Pressure  
Sea Level Pressure 29.66 in    
Wind  
Wind Speed 4 mph (SSW)    
Max Wind Speed 15 mph    
Max Gust Speed 18 mph    
Visibility 7 miles    
Events Fog , Rain    
Averages and records for this station are not official NWS values.
T = Trace of Precipitation, MM = Missing Value Source: NWS Daily Summary

Daily Weather History Graph

Daily Weather History Graph

Search for Another Location

Airport or City:

Trip Planner

Search our weather history database for the weather conditions in past years. The results will help you decide how hot, cold, wet, or windy it might be!

Date:

Astronomy

Apr. 30, 2014 Rise Set
Actual Time 5:53 AM CDT 8:00 PM CDT
Civil Twilight 5:21 AM CDT 8:31 PM CDT
Nautical Twilight 4:43 AM CDT 9:10 PM CDT
Astronomical Twilight 4:01 AM CDT 9:52 PM CDT
Moon 6:53 AM CDT (4/30) 9:40 PM CDT (4/30)
Length of Visible Light 15h 09m
Length of Day
14h 06m
New Moon, 2% of the Moon is Illuminated
Apr 30
New Moon
May 6
First Quarter
May 14
Full
May 21
Last Quarter
May 28
New

Hourly Weather History & Observations

Time (CDT) Temp. Windchill Dew Point Humidity Pressure Visibility Wind Dir Wind Speed Gust Speed Precip Events Conditions
12:15 AM 42.8 °F 41.1 °F 41.9 °F 97% 29.61 in 0.2 mi NE 3.5 mph - N/A Fog Fog
12:35 AM 42.8 °F - 41.9 °F 97% 29.61 in 0.2 mi Calm Calm - N/A Fog Fog
12:55 AM 42.8 °F - 41.9 °F 97% 29.61 in 0.2 mi Calm Calm - N/A Fog Fog
1:15 AM 43.0 °F - 42.1 °F 97% 29.60 in 0.2 mi Calm Calm - N/A Fog Fog
1:35 AM 43.0 °F - 42.1 °F 97% 29.60 in 0.2 mi Calm Calm - N/A Fog Fog
1:55 AM 43.2 °F - 42.3 °F 97% 29.60 in 0.2 mi Calm Calm - N/A Fog Fog
2:15 AM 43.0 °F - 42.1 °F 97% 29.60 in 0.2 mi Calm Calm - N/A Fog Fog
2:35 AM 43.0 °F - 42.1 °F 97% 29.60 in 0.2 mi Calm Calm - N/A   Light Drizzle
2:55 AM 43.2 °F - 42.3 °F 97% 29.60 in 0.5 mi Calm Calm - N/A   Light Drizzle
3:15 AM 43.3 °F - 42.4 °F 97% 29.60 in 0.8 mi Calm Calm - N/A Rain Light Rain
3:35 AM 43.7 °F - 42.8 °F 97% 29.60 in 1.0 mi Calm Calm - N/A   Drizzle
3:55 AM 44.1 °F - 43.2 °F 97% 29.60 in 1.2 mi Calm Calm - 0.01 in   Drizzle
4:15 AM 44.2 °F - 43.3 °F 97% 29.61 in 1.5 mi Calm Calm - N/A   Drizzle
4:35 AM 44.4 °F 42.9 °F 43.5 °F 97% 29.60 in 1.8 mi South 3.5 mph - N/A   Drizzle
4:55 AM 45.1 °F 43.7 °F 44.2 °F 97% 29.61 in 2.0 mi South 3.5 mph - N/A   Light Drizzle
5:15 AM 45.5 °F - 44.6 °F 97% 29.61 in 1.5 mi Calm Calm - N/A   Drizzle
5:35 AM 45.5 °F 44.2 °F 44.6 °F 97% 29.62 in 1.8 mi South 3.5 mph - N/A   Light Drizzle
5:55 AM 44.1 °F 42.5 °F 43.2 °F 97% 29.62 in 1.0 mi West 3.5 mph - N/A   Drizzle
6:15 AM 44.1 °F - 43.2 °F 97% 29.62 in 0.8 mi Calm Calm - N/A   Drizzle
6:35 AM 44.1 °F 42.5 °F 43.2 °F 97% 29.63 in 1.0 mi West 3.5 mph - N/A   Light Drizzle
6:55 AM 43.7 °F - 42.8 °F 97% 29.63 in 1.2 mi Calm Calm - N/A   Light Drizzle
7:15 AM 43.7 °F - 42.8 °F 97% 29.63 in 2.5 mi Calm Calm - N/A Rain Light Rain
7:35 AM 43.7 °F - 43.0 °F 97% 29.64 in 3.0 mi Calm Calm - N/A   Light Drizzle
7:55 AM 43.7 °F 39.7 °F 42.8 °F 97% 29.64 in 5.0 mi SW 6.9 mph - N/A   Overcast
8:15 AM 43.7 °F 42.1 °F 42.8 °F 97% 29.64 in 7.0 mi West 3.5 mph - N/A   Overcast
8:35 AM 43.9 °F 40.5 °F 43.0 °F 97% 29.64 in 7.0 mi SW 5.8 mph - N/A   Overcast
8:55 AM 44.2 °F 41.8 °F 43.3 °F 97% 29.65 in 10.0 mi WSW 4.6 mph - N/A   Light Drizzle
9:15 AM 44.1 °F 40.8 °F 43.2 °F 97% 29.65 in 10.0 mi SW 5.8 mph - N/A   Overcast
9:35 AM 44.2 °F 41.0 °F 43.3 °F 97% 29.65 in 10.0 mi South 5.8 mph - N/A   Overcast
9:55 AM 44.6 °F 41.4 °F 43.7 °F 97% 29.65 in 10.0 mi SSW 5.8 mph - N/A   Overcast
10:15 AM 44.6 °F 41.4 °F 43.7 °F 97% 29.66 in 10.0 mi SSW 5.8 mph - N/A   Overcast
10:35 AM 44.8 °F 41.6 °F 43.7 °F 96% 29.66 in 10.0 mi SSW 5.8 mph - N/A   Overcast
10:55 AM 44.8 °F 41.0 °F 43.7 °F 96% 29.67 in 10.0 mi SW 6.9 mph - N/A   Overcast
11:15 AM 45.7 °F 41.0 °F 42.8 °F 90% 29.67 in 10.0 mi SSW 9.2 mph - N/A   Overcast
11:35 AM 46.2 °F 42.2 °F 43.0 °F 88% 29.67 in 10.0 mi South 8.1 mph - N/A   Overcast
11:55 AM 46.2 °F 42.2 °F 42.8 °F 88% 29.67 in 10.0 mi South 8.1 mph - N/A   Overcast
12:15 PM 45.9 °F 41.7 °F 42.4 °F 88% 29.68 in 10.0 mi SSW 8.1 mph - N/A   Overcast
12:55 PM 46.6 °F - 39.9 °F 78% 29.68 in 10.0 mi South 12.7 mph - N/A   Overcast
1:15 PM 45.7 °F 39.1 °F 39.2 °F 78% 29.69 in 10.0 mi South 15.0 mph 18.4 mph N/A   Overcast
1:35 PM 46.2 °F 40.8 °F 39.2 °F 76% 29.69 in 10.0 mi South 11.5 mph - N/A   Overcast
1:55 PM 45.7 °F 40.2 °F 37.9 °F 74% 29.69 in 10.0 mi South 11.5 mph - N/A   Overcast
2:15 PM 45.7 °F 41.0 °F 37.9 °F 74% 29.68 in 10.0 mi South 9.2 mph - N/A   Overcast
2:35 PM 44.6 °F 38.8 °F 37.4 °F 76% 29.69 in 10.0 mi SSW 11.5 mph - N/A   Overcast
2:55 PM 44.2 °F 39.2 °F 37.6 °F 77% 29.69 in 10.0 mi SW 9.2 mph 12.7 mph N/A   Overcast
3:15 PM 44.8 °F 39.0 °F 37.4 °F 75% 29.70 in 10.0 mi South 11.5 mph - N/A   Overcast
3:35 PM 44.6 °F 38.8 °F 36.9 °F 74% 29.70 in 10.0 mi South 11.5 mph - N/A   Overcast
3:55 PM 44.1 °F 38.6 °F 36.9 °F 76% 29.70 in 10.0 mi South 10.4 mph - N/A   Overcast
4:15 PM 44.8 °F 39.4 °F 37.8 °F 76% 29.70 in 10.0 mi SSW 10.4 mph - N/A   Overcast
4:35 PM 44.2 °F 38.8 °F 37.0 °F 76% 29.70 in 10.0 mi South 10.4 mph - N/A   Overcast
4:55 PM 44.6 °F 39.7 °F 37.8 °F 77% 29.70 in 10.0 mi SSW 9.2 mph - N/A   Overcast
5:15 PM 44.2 °F 38.4 °F 37.6 °F 77% 29.70 in 10.0 mi SSW 11.5 mph - N/A   Overcast
5:35 PM 43.2 °F 37.0 °F 37.6 °F 81% 29.70 in 7.0 mi SSW 11.5 mph - N/A   Overcast
5:55 PM 43.3 °F 39.2 °F 37.4 °F 80% 29.70 in 10.0 mi SSW 6.9 mph - N/A   Light Drizzle
6:15 PM 43.7 °F 39.1 °F 38.1 °F 81% 29.70 in 10.0 mi SSW 8.1 mph - N/A   Overcast
6:35 PM 43.2 °F 37.9 °F 38.3 °F 83% 29.70 in 10.0 mi SW 9.2 mph - N/A   Drizzle
6:55 PM 42.8 °F 37.5 °F 37.2 °F 81% 29.70 in 10.0 mi SW 9.2 mph - N/A   Overcast
7:15 PM 42.8 °F 38.0 °F 37.4 °F 81% 29.70 in 10.0 mi SW 8.1 mph - N/A   Overcast
7:35 PM 42.1 °F 37.7 °F 37.0 °F 82% 29.71 in 10.0 mi SW 6.9 mph - N/A   Overcast
7:55 PM 41.9 °F 38.2 °F 36.9 °F 82% 29.70 in 10.0 mi SW 5.8 mph - N/A   Overcast
8:15 PM 41.9 °F 36.9 °F 36.5 °F 81% 29.70 in 10.0 mi SW 8.1 mph - N/A   Overcast
8:35 PM 41.7 °F 38.0 °F 36.5 °F 82% 29.70 in 10.0 mi SSW 5.8 mph - N/A   Overcast
8:55 PM 41.5 °F 36.4 °F 36.0 °F 81% 29.70 in 10.0 mi SSW 8.1 mph - N/A   Overcast
9:15 PM 41.5 °F 36.4 °F 36.0 °F 81% 29.71 in 10.0 mi SSW 8.1 mph - N/A   Overcast
9:35 PM 41.4 °F 36.8 °F 35.8 °F 81% 29.71 in 10.0 mi SSW 6.9 mph - N/A   Overcast
9:55 PM 41.2 °F 37.3 °F 35.6 °F 81% 29.71 in 10.0 mi SSW 5.8 mph - N/A   Overcast
10:15 PM 41.0 °F 36.4 °F 35.6 °F 81% 29.70 in 10.0 mi SSW 6.9 mph - N/A   Overcast
10:35 PM 40.6 °F 36.7 °F 36.0 °F 83% 29.69 in 10.0 mi SSW 5.8 mph - N/A   Overcast
10:55 PM 41.0 °F 36.4 °F 36.1 °F 83% 29.69 in 10.0 mi SSW 6.9 mph - N/A   Overcast
11:15 PM 40.8 °F 35.6 °F 36.1 °F 83% 29.68 in 10.0 mi SSW 8.1 mph - N/A   Overcast
11:35 PM 40.5 °F 36.5 °F 36.1 °F 85% 29.68 in 10.0 mi SSW 5.8 mph - N/A   Overcast
11:55 PM 40.1 °F 36.9 °F 36.1 °F 86% 29.68 in 10.0 mi SSW 4.6 mph - N/A   Overcast